| time (UTC) | temp F | wind direction | speed knots | gust knots | rain 1hr in | rain 24hr in | rain mn in | humidity % | barometer mb |
| 20260507143017 | 75 | 0 | 0.9 | 2.6 | 0.00 | 0.00 | 0.00 | 18 | 1014.1 |
| 20260507142017 | 74 | 0 | 0.9 | 2.6 | 0.00 | 0.00 | 0.00 | 19 | 1014.1 |
| 20260507141018 | 73 | 0 | 0.9 | 2.6 | 0.00 | 0.00 | 0.00 | 20 | 1014.1 |
| 20260507140037 | 72 | 0 | 0.9 | 2.6 | 0.00 | 0.00 | 0.00 | 22 | 1013.9 |
| 20260507135017 | 70 | 0.0 | 0.9 | 0.00 | 0.00 | 0.00 | 28 | 1013.7 | |
| 20260507134017 | 69 | 0.0 | 1.7 | 0.00 | 0.00 | 0.00 | 30 | 1013.7 | |
| 20260507133017 | 67 | 0 | 0.9 | 1.7 | 0.00 | 0.00 | 0.00 | 31 | 1013.7 |
| 20260507132017 | 66 | 0.0 | 0.9 | 0.00 | 0.00 | 0.00 | 32 | 1013.5 | |
| 20260507131017 | 65 | 0 | 0.9 | 1.7 | 0.00 | 0.00 | 0.00 | 33 | 1013.4 |
| 20260507130019 | 65 | 0 | 0.9 | 1.7 | 0.00 | 0.00 | 0.00 | 33 | 1013.4 |
| 20260507125017 | 65 | 0.0 | 1.7 | 0.00 | 0.00 | 0.00 | 32 | 1013.3 | |
| 20260507124017 | 65 | 0 | 0.9 | 1.7 | 0.00 | 0.00 | 0.00 | 33 | 1013.2 |
| 20260507123017 | 65 | 0.0 | 1.7 | 0.00 | 0.00 | 0.00 | 33 | 1013.2 | |
| 20260507122018 | 65 | 0.0 | 0.9 | 0.00 | 0.00 | 0.00 | 33 | 1013.2 | |
| 20260507121017 | 65 | 0.0 | 0.9 | 0.00 | 0.00 | 0.00 | 32 | 1013.2 | |
| 20260507120037 | 65 | 0 | 0.9 | 2.6 | 0.00 | 0.00 | 0.00 | 32 | 1013.2 |
| 20260507115017 | 65 | 0.0 | 1.7 | 0.00 | 0.00 | 0.00 | 32 | 1013.4 | |
| 20260507114017 | 66 | 0.0 | 0.9 | 0.00 | 0.00 | 0.00 | 31 | 1013.6 | |
| 20260507113017 | 67 | 0.0 | 0.9 | 0.00 | 0.00 | 0.00 | 31 | 1013.6 | |
| 20260507112017 | 66 | 0 | 0.9 | 1.7 | 0.00 | 0.00 | 0.00 | 31 | 1013.6 |
| 20260507111017 | 66 | 0.0 | 0.9 | 0.00 | 0.00 | 0.00 | 30 | 1013.7 | |
| 20260507110016 | 67 | 0.0 | 0.0 | 0.00 | 0.00 | 0.00 | 30 | 1013.7 | |
| 20260507105037 | 68 | 0.0 | 0.9 | 0.00 | 0.00 | 0.00 | 29 | 1013.8 | |
| 20260507104017 | 67 | 0.0 | 0.9 | 0.00 | 0.00 | 0.00 | 29 | 1013.9 | |
| 20260507103057 | 67 | 0.0 | 0.9 | 0.00 | 0.00 | 0.00 | 30 | 1013.9 | |
| 20260507102017 | 67 | 0.0 | 0.0 | 0.00 | 0.00 | 0.00 | 30 | 1013.9 | |
| 20260507101016 | 66 | 0.0 | 1.7 | 0.00 | 0.00 | 0.00 | 30 | 1014.2 | |
| 20260507100037 | 66 | 0.0 | 0.0 | 0.00 | 0.00 | 0.00 | 30 | 1014.2 | |
| 20260507095017 | 67 | 0.0 | 1.7 | 0.00 | 0.00 | 0.00 | 29 | 1014.2 | |
| 20260507094017 | 66 | 0.0 | 0.0 | 0.00 | 0.00 | 0.00 | 30 | 1014.1 | |
| 20260507093017 | 66 | 0.0 | 0.0 | 0.00 | 0.00 | 0.00 | 30 | 1014.2 | |
| 20260507092016 | 66 | 0.0 | 0.0 | 0.00 | 0.00 | 0.00 | 30 | 1014.1 | |
| 20260507091017 | 66 | 0.0 | 0.0 | 0.00 | 0.00 | 0.00 | 30 | 1014.1 | |
| 20260507090017 | 66 | 0.0 | 0.0 | 0.00 | 0.00 | 0.00 | 31 | 1014.2 | |
| 20260507085016 | 67 | 0.0 | 0.0 | 0.00 | 0.00 | 0.00 | 31 | 1014.4 | |
| 20260507084016 | 67 | 0.0 | 0.0 | 0.00 | 0.00 | 0.00 | 30 | 1014.4 | |
| 20260507083016 | 68 | 0.0 | 0.0 | 0.00 | 0.00 | 0.00 | 29 | 1014.4 | |
| 20260507082016 | 68 | 0 | 0.9 | 1.7 | 0.00 | 0.00 | 0.00 | 29 | 1014.5 |
| 20260507081016 | 68 | 0.0 | 0.0 | 0.00 | 0.00 | 0.00 | 29 | 1014.6 | |
| 20260507080016 | 69 | 0.0 | 0.0 | 0.00 | 0.00 | 0.00 | 30 | 1014.6 | |
| 20260507075016 | 68 | 0.0 | 0.0 | 0.00 | 0.00 | 0.00 | 29 | 1014.5 | |
| 20260507074016 | 69 | 0.0 | 1.7 | 0.00 | 0.00 | 0.00 | 29 | 1014.5 | |
| 20260507073016 | 69 | 0.0 | 0.9 | 0.00 | 0.00 | 0.00 | 29 | 1014.5 | |
| 20260507072016 | 69 | 0.0 | 0.0 | 0.00 | 0.00 | 0.00 | 28 | 1014.5 | |
| 20260507071016 | 69 | 0.0 | 0.0 | 0.00 | 0.00 | 0.00 | 28 | 1014.5 | |
| 20260507070016 | 70 | 0.0 | 0.0 | 0.00 | 0.00 | 0.00 | 27 | 1014.6 | |
| 20260507065016 | 70 | 0.0 | 0.9 | 0.00 | 0.00 | 0.00 | 27 | 1014.6 | |
| 20260507064015 | 71 | 0.0 | 0.0 | 0.00 | 0.00 | 0.00 | 26 | 1014.6 | |
| 20260507063016 | 72 | 0.0 | 0.0 | 0.00 | 0.00 | 0.00 | 26 | 1014.6 | |
| 20260507062016 | 72 | 0.0 | 0.9 | 0.00 | 0.00 | 0.00 | 26 | 1014.6 | |
| 20260507061015 | 72 | 0.0 | 0.9 | 0.00 | 0.00 | 0.00 | 26 | 1014.6 | |
| 20260507060015 | 72 | 0.0 | 0.9 | 0.00 | 0.00 | 0.00 | 25 | 1014.5 | |
| 20260507055016 | 72 | 0.0 | 1.7 | 0.00 | 0.00 | 0.00 | 25 | 1014.5 | |
| 20260507054016 | 72 | 0.0 | 1.7 | 0.00 | 0.00 | 0.00 | 26 | 1014.4 | |
| 20260507053015 | 73 | 0.0 | 0.9 | 0.00 | 0.00 | 0.00 | 26 | 1014.4 | |
| 20260507052036 | 73 | 0.0 | 1.7 | 0.00 | 0.00 | 0.00 | 25 | 1014.3 | |
| 20260507051036 | 73 | 0.0 | 0.9 | 0.00 | 0.00 | 0.00 | 25 | 1014.4 | |
| 20260507050018 | 74 | 0 | 0.9 | 2.6 | 0.00 | 0.00 | 0.00 | 25 | 1014.5 |
| 20260507045019 | 74 | 0.0 | 0.9 | 0.00 | 0.00 | 0.00 | 25 | 1014.3 | |
| 20260507044017 | 74 | 0.0 | 1.7 | 0.00 | 0.00 | 0.00 | 25 | 1014.0 | |
| 20260507043017 | 74 | 0 | 0.9 | 2.6 | 0.00 | 0.00 | 0.00 | 25 | 1013.9 |
| 20260507042017 | 74 | 0 | 0.9 | 3.5 | 0.00 | 0.00 | 0.00 | 25 | 1013.7 |
| 20260507041017 | 74 | 0 | 0.9 | 2.6 | 0.00 | 0.00 | 0.00 | 25 | 1013.6 |
| 20260507040018 | 73 | 0 | 0.9 | 4.3 | 0.00 | 0.00 | 0.00 | 26 | 1013.5 |
| 20260507035017 | 73 | 0.0 | 0.0 | 0.00 | 0.00 | 0.00 | 26 | 1013.4 | |
| 20260507034057 | 73 | 0.0 | 0.0 | 0.00 | 0.00 | 0.00 | 26 | 1013.1 | |
| 20260507033037 | 73 | 0.0 | 0.0 | 0.00 | 0.00 | 0.00 | 26 | 1013.0 | |
| 20260507032017 | 74 | 0.0 | 1.7 | 0.00 | 0.00 | 0.00 | 25 | 1013.0 | |
| 20260507031037 | 74 | 0.0 | 1.7 | 0.00 | 0.00 | 0.00 | 25 | 1012.8 | |
| 20260507030017 | 74 | 0.0 | 0.9 | 0.00 | 0.00 | 0.00 | 24 | 1012.6 | |
| 20260507025017 | 75 | 0.0 | 0.9 | 0.00 | 0.00 | 0.00 | 25 | 1012.4 | |
| 20260507024017 | 75 | 0.0 | 0.9 | 0.00 | 0.00 | 0.00 | 24 | 1012.3 | |
| 20260507023018 | 76 | 0.0 | 0.9 | 0.00 | 0.00 | 0.00 | 24 | 1012.2 | |
| 20260507022017 | 76 | 0.0 | 1.7 | 0.00 | 0.00 | 0.00 | 23 | 1012.1 | |
| 20260507021017 | 77 | 0 | 0.9 | 2.6 | 0.00 | 0.00 | 0.00 | 23 | 1012.0 |
| 20260507020017 | 77 | 0.0 | 0.9 | 0.00 | 0.00 | 0.00 | 23 | 1011.9 | |
| 20260507015017 | 78 | 0 | 0.9 | 3.5 | 0.00 | 0.00 | 0.00 | 22 | 1011.9 |
| 20260507014017 | 78 | 0 | 0.9 | 2.6 | 0.00 | 0.00 | 0.00 | 22 | 1011.8 |
| 20260507013017 | 78 | 0 | 1.7 | 7.0 | 0.00 | 0.00 | 0.00 | 22 | 1011.6 |
| 20260507012017 | 79 | 0 | 2.6 | 6.1 | 0.00 | 0.00 | 0.00 | 21 | 1011.7 |
| 20260507011017 | 79 | 0 | 1.7 | 5.2 | 0.00 | 0.00 | 0.00 | 21 | 1011.8 |
| 20260507010017 | 79 | 0 | 0.9 | 4.3 | 0.00 | 0.00 | 0.00 | 21 | 1011.8 |
| 20260507005017 | 79 | 0 | 0.9 | 2.6 | 0.00 | 0.00 | 0.00 | 21 | 1011.7 |
| 20260507004017 | 79 | 0 | 1.7 | 4.3 | 0.00 | 0.00 | 0.00 | 21 | 1011.7 |
| 20260507003017 | 80 | 0 | 1.7 | 5.2 | 0.00 | 0.00 | 0.00 | 21 | 1011.8 |
| 20260507002017 | 80 | 0 | 0.9 | 3.5 | 0.00 | 0.00 | 0.00 | 21 | 1011.7 |
| 20260507001017 | 80 | 0 | 1.7 | 4.3 | 0.00 | 0.00 | 0.00 | 21 | 1011.8 |
| 20260507000037 | 81 | 0 | 0.9 | 4.3 | 0.00 | 0.00 | 0.00 | 21 | 1011.9 |
| 20260506235017 | 81 | 0 | 0.9 | 1.7 | 0.00 | 0.00 | 0.00 | 21 | 1011.8 |
| 20260506234016 | 82 | 0 | 0.9 | 2.6 | 0.00 | 0.00 | 0.00 | 21 | 1012.0 |
| 20260506233017 | 82 | 0 | 0.9 | 3.5 | 0.00 | 0.00 | 0.00 | 20 | 1012.1 |
| 20260506232016 | 82 | 0 | 1.7 | 3.5 | 0.00 | 0.00 | 0.00 | 21 | 1012.2 |
| 20260506231016 | 83 | 0 | 1.7 | 5.2 | 0.00 | 0.00 | 0.00 | 20 | 1012.4 |
| 20260506230016 | 82 | 0 | 1.7 | 7.0 | 0.00 | 0.00 | 0.00 | 20 | 1012.3 |
| 20260506225017 | 83 | 0 | 1.7 | 5.2 | 0.00 | 0.00 | 0.00 | 20 | 1012.5 |
| 20260506224017 | 82 | 0 | 0.9 | 3.5 | 0.00 | 0.00 | 0.00 | 21 | 1012.4 |
| 20260506223016 | 81 | 0 | 1.7 | 5.2 | 0.00 | 0.00 | 0.00 | 22 | 1012.6 |
| 20260506222017 | 81 | 0 | 2.6 | 7.0 | 0.00 | 0.00 | 0.00 | 21 | 1012.8 |
| 20260506221017 | 82 | 0 | 1.7 | 5.2 | 0.00 | 0.00 | 0.00 | 21 | 1013.0 |
| 20260506220037 | 81 | 0 | 2.6 | 6.1 | 0.00 | 0.00 | 0.00 | 21 | 1013.1 |
| 20260506215016 | 82 | 0 | 1.7 | 5.2 | 0.00 | 0.00 | 0.00 | 21 | 1013.3 |
| 20260506214037 | 81 | 0 | 0.9 | 4.3 | 0.00 | 0.00 | 0.00 | 22 | 1013.4 |
| 20260506213016 | 80 | 0 | 1.7 | 6.1 | 0.00 | 0.00 | 0.00 | 23 | 1013.5 |
| 20260506212016 | 79 | 0 | 1.7 | 7.8 | 0.00 | 0.00 | 0.00 | 22 | 1013.6 |
| 20260506211017 | 80 | 0 | 2.6 | 5.2 | 0.00 | 0.00 | 0.00 | 22 | 1013.9 |
| 20260506210016 | 82 | 0 | 0.9 | 3.5 | 0.00 | 0.00 | 0.00 | 21 | 1014.2 |
| 20260506205016 | 80 | 0 | 1.7 | 8.7 | 0.00 | 0.00 | 0.00 | 23 | 1014.2 |
| 20260506204016 | 79 | 0 | 1.7 | 6.1 | 0.00 | 0.00 | 0.00 | 23 | 1014.4 |
| 20260506203016 | 79 | 0 | 2.6 | 5.2 | 0.00 | 0.00 | 0.00 | 23 | 1014.5 |
| 20260506202016 | 79 | 0 | 2.6 | 7.0 | 0.00 | 0.00 | 0.00 | 23 | 1014.7 |
| 20260506201017 | 78 | 0 | 0.9 | 2.6 | 0.00 | 0.00 | 0.00 | 25 | 1014.8 |
| 20260506200016 | 79 | 0 | 1.7 | 4.3 | 0.00 | 0.00 | 0.00 | 23 | 1015.0 |
| 20260506195016 | 79 | 0 | 1.7 | 7.8 | 0.00 | 0.00 | 0.00 | 24 | 1015.0 |
| 20260506194016 | 78 | 0 | 0.9 | 2.6 | 0.00 | 0.00 | 0.00 | 26 | 1015.0 |
| 20260506193016 | 77 | 0 | 1.7 | 4.3 | 0.00 | 0.00 | 0.00 | 27 | 1015.2 |
| 20260506192016 | 77 | 0 | 1.7 | 7.0 | 0.00 | 0.00 | 0.00 | 25 | 1015.2 |
| 20260506191016 | 77 | 0 | 1.7 | 4.3 | 0.00 | 0.00 | 0.00 | 26 | 1015.3 |
| 20260506190037 | 77 | 0 | 1.7 | 7.0 | 0.00 | 0.00 | 0.00 | 27 | 1015.4 |
| 20260506185016 | 76 | 0 | 1.7 | 5.2 | 0.00 | 0.00 | 0.00 | 26 | 1015.3 |
| 20260506184016 | 76 | 0 | 0.9 | 4.3 | 0.00 | 0.00 | 0.00 | 27 | 1015.5 |
| 20260506183016 | 76 | 0 | 1.7 | 5.2 | 0.00 | 0.00 | 0.00 | 27 | 1015.8 |
| 20260506182016 | 77 | 0 | 1.7 | 4.3 | 0.00 | 0.00 | 0.00 | 25 | 1016.0 |
| 20260506181016 | 78 | 0 | 1.7 | 7.0 | 0.00 | 0.00 | 0.00 | 25 | 1016.0 |
| 20260506180036 | 77 | 0 | 0.9 | 3.5 | 0.00 | 0.00 | 0.00 | 27 | 1016.1 |
| 20260506175016 | 75 | 0 | 0.9 | 2.6 | 0.00 | 0.00 | 0.00 | 28 | 1016.0 |
| 20260506174016 | 73 | 0 | 1.7 | 5.2 | 0.00 | 0.00 | 0.00 | 29 | 1015.9 |
| 20260506173016 | 73 | 0 | 2.6 | 7.8 | 0.00 | 0.00 | 0.00 | 30 | 1015.9 |
| 20260506172016 | 73 | 0 | 1.7 | 5.2 | 0.00 | 0.00 | 0.00 | 31 | 1016.0 |
| 20260506171017 | 73 | 0 | 2.6 | 7.0 | 0.00 | 0.00 | 0.00 | 30 | 1016.0 |
| 20260506170016 | 72 | 0 | 0.9 | 2.6 | 0.00 | 0.00 | 0.00 | 32 | 1015.9 |
| 20260506165016 | 72 | 0 | 2.6 | 6.1 | 0.00 | 0.00 | 0.00 | 32 | 1016.0 |
| 20260506164016 | 71 | 0 | 0.9 | 2.6 | 0.00 | 0.00 | 0.00 | 33 | 1015.7 |
| 20260506163015 | 70 | 0 | 1.7 | 5.2 | 0.00 | 0.00 | 0.00 | 34 | 1015.7 |
| 20260506162015 | 69 | 0 | 1.7 | 2.6 | 0.00 | 0.00 | 0.00 | 34 | 1015.5 |
| 20260506161015 | 69 | 0 | 1.7 | 4.3 | 0.00 | 0.00 | 0.00 | 35 | 1015.4 |
| 20260506160026 | 68 | 0 | 0.9 | 3.5 | 0.00 | 0.00 | 0.00 | 35 | 1015.5 |
| 20260506155035 | 69 | 0 | 1.7 | 3.5 | 0.00 | 0.00 | 0.00 | 35 | 1015.4 |
| 20260506154016 | 68 | 0 | 0.9 | 2.6 | 0.00 | 0.00 | 0.00 | 35 | 1015.5 |
| 20260506153016 | 68 | 0.0 | 1.7 | 0.00 | 0.00 | 0.00 | 37 | 1015.5 | |
| 20260506152016 | 67 | 0 | 0.9 | 1.7 | 0.00 | 0.00 | 0.00 | 38 | 1015.6 |
| 20260506151016 | 66 | 0.0 | 0.0 | 0.00 | 0.00 | 0.00 | 38 | 1015.7 | |
| 20260506150016 | 65 | 0.0 | 0.9 | 0.00 | 0.00 | 0.00 | 37 | 1015.5 | |
| 20260506145017 | 65 | 0.0 | 1.7 | 0.00 | 0.00 | 0.00 | 39 | 1015.5 | |
| 20260506144018 | 64 | 0.0 | 1.7 | 0.00 | 0.00 | 0.00 | 40 | 1015.5 |